Flag for Netherlands Weather past 2 weeks in Groningen, Netherlands

Now
55 °F

Partly sunny.


Feels Like: 52 °F
Forecast: 49 / 58 °F
Wind: 12 mph from South

Location: Groningen Eelde Airport

Current Time: Oct 24, 2014 at 3:40:32 PM

Latest Report: Oct 24, 2014 at 2:55 PM


Visibility: N/A

Pressure: 30.01 "Hg

Humidity: 82%

Dew point: 50 °F

Location of GroningenLocation

Historic Weather in Groningen — Graph

°F

Groningen temperature yesterday

Maximum temperature yesterday: 55 °F (at 2:25 PM)
Minimum temperature yesterday: 46 °F (at 12:55 AM)
Average temperature yesterday: 52 °F

Past Weeks' High & Low Weather Summary

 TemperatureHumidityPressure
High68 °F (Oct 18, 4:25 PM)100% (Oct 10, 11:55 PM)30.15 "Hg (Oct 10, 11:55 PM)
Low45 °F (Oct 11, 3:55 AM)58% (Oct 22, 11:55 AM)29.33 "Hg (Oct 21, 3:25 PM)
Average56 °F89%29.83 "Hg
* Reported Oct 9 2:25 PM — Oct 24 2:55 PM, Groningen, Weather by CustomWeather, © 2014

Note: Actual official high and low records may vary slightly from our data, if they occured in-between our weather recording intervals... More about our weather records

Advertising

Groningen weather history for previous 24 hours

 ConditionsComfort  
Time TempWeatherWind HumidityBarometerVisibility
2:55 PM
Oct 24
55 °FPartly sunny.12 mph82%30.01 "HgN/A
2:25 PM55 °FMostly cloudy.10 mph82%30.04 "HgN/A
1:55 PM55 °FPartly sunny.13 mph77%30.04 "HgN/A
1:25 PM55 °FOvercast.15 mph77%30.04 "HgN/A
12:55 PM55 °FMore clouds than sun.13 mph77%30.07 "HgN/A
12:25 PM54 °FMostly cloudy.14 mph82%30.07 "HgN/A
11:55 AM54 °FMore clouds than sun.10 mph82%30.07 "HgN/A
11:25 AM54 °FDrizzle. More clouds than sun.12 mph82%30.07 "HgN/A
10:55 AM54 °FOvercast.12 mph82%30.07 "HgN/A
10:25 AM54 °FPartly sunny.13 mph82%30.07 "HgN/A
9:55 AM54 °FScattered clouds.12 mph82%30.07 "HgN/A
9:25 AM54 °FOvercast.10 mph82%30.07 "HgN/A
8:55 AM54 °FOvercast.10 mph82%30.07 "HgN/A
8:25 AM54 °FMostly cloudy.12 mph82%30.07 "HgN/A
7:55 AM52 °FOvercast.9 mph88%30.07 "HgN/A
7:25 AM54 °FOvercast.12 mph82%30.07 "HgN/A
6:55 AM52 °FOvercast.13 mph88%30.07 "HgN/A
6:25 AM52 °FDrizzle. Mostly cloudy.10 mph88%30.07 "Hg6 mi
5:55 AM52 °FMostly cloudy.10 mph94%30.07 "Hg6 mi
5:25 AM52 °FOvercast.14 mph94%30.07 "Hg4 mi
4:55 AM54 °FMostly cloudy.15 mph82%30.07 "HgN/A
4:25 AM54 °FOvercast.13 mph82%30.07 "HgN/A
3:55 AM54 °FOvercast.13 mph82%30.07 "HgN/A
3:25 AM54 °FOvercast.12 mph88%30.07 "HgN/A
2:55 AM54 °FMostly cloudy.12 mph88%30.07 "HgN/A
2:25 AM54 °FMostly cloudy.10 mph88%30.09 "HgN/A
1:55 AM55 °FMostly cloudy.13 mph82%30.09 "HgN/A
1:25 AM55 °FOvercast.12 mph82%30.09 "HgN/A
12:55 AM55 °FMostly cloudy.12 mph82%30.09 "HgN/A
12:25 AM55 °FMostly cloudy.12 mph88%30.09 "Hg6 mi
11:55 PM
Oct 23
55 °FMostly cloudy.13 mph82%30.09 "HgN/A
11:25 PM55 °FPassing clouds.12 mph82%30.09 "HgN/A
10:55 PM55 °FPartly cloudy.13 mph82%30.09 "HgN/A
10:25 PM55 °FMostly cloudy.10 mph82%30.12 "HgN/A
9:55 PM55 °FOvercast.9 mph82%30.09 "HgN/A
9:25 PM55 °FMostly cloudy.9 mph82%30.09 "HgN/A
8:55 PM55 °FMostly cloudy.8 mph82%30.09 "HgN/A
8:25 PM55 °FMostly cloudy.9 mph82%30.09 "HgN/A
7:55 PM54 °FOvercast.7 mph94%30.09 "HgN/A
7:25 PM54 °FMostly cloudy.7 mph94%30.09 "Hg6 mi
6:55 PM55 °FOvercast.9 mph88%30.09 "Hg6 mi
6:25 PM55 °FBroken clouds.8 mph88%30.09 "HgN/A
5:55 PM55 °FMore clouds than sun.8 mph88%30.09 "Hg6 mi
5:25 PM55 °FMostly cloudy.8 mph88%30.09 "Hg6 mi
4:55 PM55 °FBroken clouds.8 mph88%30.09 "Hg6 mi
4:25 PM55 °FOvercast.9 mph88%30.12 "Hg6 mi
3:55 PM55 °FBroken clouds.10 mph88%30.12 "Hg5 mi
3:25 PM55 °FMostly cloudy.9 mph88%30.12 "Hg5 mi
Weather by CustomWeather, © 2014

See weather overviewHow to use our weather pages